Weather in Sarasota

United States     27°20′10″N   82°31′52″W
temp.,
°C
wind,
m/s
gust,
m/s
humid.,
%
clouds,
%
prec.,
mm/h
press.,
hPa
HPBL,
m
23 may, mon
mon2323:00+28ssw2281100 0.1 102067
02:00+27se357899 0.4 1020182
05:00+25ese488560 0.0 1018324
08:00+25se47836 0.0 1019335
11:00+29s45615 0.0 1019923
14:00+29sw76630 0.0 1018965
17:00+29w54655 0.0 1016495
20:00+28nw3370100 0.1 1017272
24 may, tue
tue2423:00+27wsw1171100 0.1 1017162
02:00+27se117154 0.1 101788
05:00+25se58785 0.0 1016339
08:00+25se5777100 0.0 1017392
11:00+29se4658100 0.0 10171095
14:00+30s4652100 0.0 10161167
17:00+29sw6661100 0.0 1015531
20:00+27wsw446987 0.0 1015327
25 may, wed
wed2523:00+26se227288 0.1 1017114
02:00+25ese596240 0.2 1017477
05:00+23ese5107429 0.0 1017361
08:00+24ese61074100 0.0 1017479
11:00+29se7854100 0.0 10171321
14:00+30ssw7849100 0.0 10171307
17:00+28ssw786496 0.0 1015487
20:00+26ssw3473100 0.5 1016182
26 may, thu
thu2623:00+26e3571100 1.1 1018211
02:00+25ese5973100 1.3 1017559
05:00+24ese5108049 0.0 1017509
08:00+25ese61077100 0.0 1018623
11:00+27se7964100 0.0 1018977
14:00+30sse5654100 0.0 1017980
17:00+29ssw6659100 0.0 10161006
20:00+27ssw567268 0.0 1016441
27 may, fri
fri2723:00+26sse57735 0.9 1017448
02:00+26sse477650 0.9 1016533
05:00+24se468172 0.0 1015243
08:00+25se46816 0.7 1016346
11:00+28ssw66660 0.2 1016980
14:00+28sw76670 0.6 1016923
17:00+28sw66635 0.0 1014749
20:00+27wsw56750 0.1 1014667